Regional Weather Roundup
Issued by NWS

Home | Current Version | Previous Version | Graphics & Text | Print | Product List | Glossary On
Versions: 1 2 3 4 5 6 7 8 9 10 11 12 13 14 15 16 17 18 19 20 21 22 23 24 25 26 27 28 29 30 31 32 33 34 35 36 37 38 39 40 41 42 43 44 45 46 47 48 49 50
000
ASUS43 KFSD 221810
RWRSD

WEATHER ROUNDUP FOR SOUTH DAKOTA
NATIONAL WEATHER SERVICE SIOUX FALLS SD
100 PM CDT MON SEP 22 2014

NOTE: "FAIR" INDICATES FEW OR NO CLOUDS BELOW 12,000 FEET WITH NO
SIGNIFICANT WEATHER AND/OR OBSTRUCTIONS TO VISIBILITY.


SDZ001>005-009-010-012>017-221900-
NORTHWEST AND NORTH CENTRAL SOUTH DAKOTA

CITY           SKY/WX    TMP DP  RH WIND       PRES   REMARKS
BUFFALO          N/A     72  46  39 S14       29.93F
FAITH            N/A     71  47  42 SE21G29   30.00F
MOBRIDGE       MOSUNNY   77  49  37 S18G24    30.05F
$$

SDZ012>016-024>037-041>051-057-063-072>074-221900-
SOUTHWEST AND SOUTH CENTRAL SOUTH DAKOTA

CITY           SKY/WX    TMP DP  RH WIND       PRES   REMARKS
RAPID CTY ARPT SUNNY     75  46  35 S21G28    30.00F
PIERRE         MOSUNNY   76  46  34 SE16      30.07F
CUSTER         PTSUNNY   69  44  40 SW8       30.11F
PHILIP         PTSUNNY   77  47  34 S21       30.03F
PINE RIDGE     PTSUNNY   73  49  42 S23G30    30.06F
WINNER         FAIR      76  45  33 S22G28    30.13F
$$

SDZ004>011-016>023-039-040-221900-
NORTHEAST SOUTH DAKOTA

CITY           SKY/WX    TMP DP  RH WIND       PRES   REMARKS
ABERDEEN       SUNNY     74  47  38 S13       30.15F
WATERTOWN      SUNNY     71  46  40 SW12      30.19F
SISSETON         N/A     73  47  39 SW9       30.16F
$$

SDZ017-020-022-023-036>040-048>070-221900-
SOUTHEAST SOUTH DAKOTA

CITY           SKY/WX    TMP DP  RH WIND       PRES   REMARKS
SIOUX FALLS    PTSUNNY   70  47  43 S10       30.23F
HURON          MOSUNNY   72  47  40 MISG      30.17F
CHAMBERLAIN    MOSUNNY   73  49  42 S13G20    30.15F
MITCHELL       MOSUNNY   72  48  42 S13G20    30.20F
YANKTON        MOSUNNY   70  48  46 S10       30.24F
$$

ABBREVIATIONS USED IN REMARKS
   TC - TEMPERATURE IN CELSIUS
  WCI - WIND CHILL INDEX
   HX - HEAT INDEX
  VSB - VISIBILITY



USA.gov is the U.S. government's official web portal to all federal, state and local government web resources and services.